Home   Weather   Erie   Past weeks
Flag for USA

Past Weather in Erie, Pennsylvania, USA — Yesterday and Last 2 Weeks

Now
65 °F

Sunny.


Feels Like: 65 °F
Forecast: 77 / 56 °F
Wind: 7 mph from Southeast

Location: Erie International Airport

Current Time: Aug 25, 2019 at 9:52:23 am

Latest Report: Aug 25, 2019 at 8:51 am


Visibility: 10 mi

Pressure: 30.27 "Hg

Humidity: 61%

Dew Point: 51 °F

Location of ErieLocation

Past Weather in Erie — Graph

°F

Erie Temperature Yesterday

Maximum temperature yesterday: 73 °F (at 2:51 pm)
Minimum temperature yesterday: 61 °F (at 6:51 am)
Average temperature yesterday: 67 °F

High & Low Weather Summary for the Past Weeks

 TemperatureHumidityPressure
High89 °F (Aug 18, 3:51 pm)91% (Aug 14, 12:39 am)30.27 "Hg (Aug 14, 12:39 am)
Low58 °F (Aug 25, 4:51 am)38% (Aug 11, 1:51 pm)29.76 "Hg (Aug 13, 3:51 pm)
Average73 °F69%29.97 "Hg
* Reported Aug 10 7:51 am — Aug 25 7:51 am, Erie. Weather by CustomWeather, © 2019

Note: Actual official high and low records may vary slightly from our data, if they occured in-between our weather recording intervals... More about our weather records

Advertising

Erie Weather History for the Previous 24 Hours

Scroll right to see more
 ConditionsComfort  
Time TempWeatherWind HumidityBarometerVisibility
7:51 am
Sun, Aug 25
60 °FSunny.7 mph72%30.26 "Hg10 mi
6:51 am58 °FSunny.8 mph75%30.25 "Hg10 mi
5:51 am58 °FClear.9 mph75%30.24 "Hg10 mi
4:51 am58 °FClear.8 mph78%30.23 "Hg10 mi
3:51 am59 °FClear.8 mph75%30.23 "Hg10 mi
2:51 am59 °FClear.6 mph78%30.23 "Hg10 mi
1:51 am59 °FClear.5 mph78%30.25 "Hg10 mi
12:51 am61 °FClear.7 mph72%30.27 "Hg10 mi
11:51 pm
Sat, Aug 24
63 °FClear.6 mph68%30.27 "Hg10 mi
10:51 pm63 °FClear.5 mph68%30.26 "Hg10 mi
9:51 pm64 °FClear.6 mph65%30.27 "Hg10 mi
8:51 pm66 °FClear.9 mph61%30.26 "Hg10 mi
7:51 pm68 °FSunny.14 mph57%30.25 "Hg10 mi
6:51 pm70 °FSunny.14 mph53%30.24 "Hg10 mi
5:51 pm71 °FPassing clouds.15 mph51%30.24 "Hg10 mi
4:51 pm72 °FPartly sunny.16 mph48%30.24 "Hg10 mi
3:51 pm72 °FPassing clouds.17 mph46%30.24 "Hg10 mi
2:51 pm73 °FSunny.15 mph44%30.25 "Hg10 mi
1:51 pm72 °FSunny.16 mph38%30.26 "Hg10 mi
12:51 pm72 °FSunny.16 mph46%30.27 "Hg10 mi
11:51 am71 °FPassing clouds.13 mph45%30.27 "Hg10 mi
10:51 am71 °FScattered clouds.10 mph47%30.27 "Hg10 mi
9:51 am69 °FScattered clouds.10 mph51%30.27 "Hg10 mi
Weather by CustomWeather, © 2019

See weather overview